YO3GTS-13 Weather Reports


time (UTC)temp
F
wind
direction
speed
knots
gust
knots
rain 1hr
in
rain 24hr
in
rain mn
in
humidity
%
barometer
mb
20260906052015 69 193 6.1 7.8 0.00 0.00 0.00 59 1024.2
20260906051016 68 199 6.1 7.8 0.00 0.00 0.00 61 1024.1
20260906045459 67 203 6.1 8.7 0.00 0.00 0.00 62 1023.9
20260906044458 66 208 6.1 10.4 0.00 0.00 0.00 62 1023.7
20260906043456 66 209 6.1 7.8 0.00 0.00 0.00 62 1023.7
20260906042454 66 207 6.1 8.7 0.00 0.00 0.00 62 1023.5
20260906041513 66 206 6.1 9.6 0.00 0.00 0.00 61 1023.3
20260906040450 66 208 6.1 7.8 0.00 0.00 0.00 61 1023.1
20260906035508 67 206 6.1 7.8 0.00 0.00 0.00 61 1022.8
20260906034506 67 206 6.1 9.6 0.00 0.00 0.00 61 1022.7
20260906033444 67 204 6.1 7.8 0.00 0.00 0.00 61 1022.9
20260906032502 67 203 6.1 7.8 0.00 0.00 0.00 62 1022.9
20260906031440 68 203 6.1 10.4 0.00 0.00 0.00 62 1022.7
20260906030440 68 204 6.1 8.7 0.00 0.00 0.00 62 1022.5
20260906025436 68 205 6.1 9.6 0.00 0.00 0.00 62 1022.2
20260906024439 68 201 6.1 9.6 0.00 0.00 0.00 61 1021.8
20260906023432 69 204 6.1 7.8 0.00 0.00 0.00 61 1021.9
20260906022431 69 204 6.1 8.7 0.00 0.00 0.00 61 1021.8
20260906021428 69 203 6.1 8.7 0.00 0.00 0.00 61 1021.4
20260906020426 69 204 6.1 10.4 0.00 0.00 0.00 62 1021.3
20260906015444 70 205 6.1 7.8 0.00 0.00 0.00 62 1021.2
20260906014442 70 204 6.1 9.6 0.00 0.00 0.00 62 1021.2
20260906013420 70 202 6.1 8.7 0.00 0.00 0.00 62 1021.2
20260906012418 71 200 6.1 8.7 0.00 0.00 0.00 62 1021.0
20260906011418 71 200 6.1 9.6 0.00 0.00 0.00 61 1020.7
20260906010415 71 199 6.1 8.7 0.00 0.00 0.00 61 1020.5
20260906005412 71 200 6.1 9.6 0.00 0.00 0.00 60 1020.3
20260906004410 71 199 6.1 7.8 0.00 0.00 0.00 60 1020.2
20260906003409 72 198 6.1 8.7 0.00 0.00 0.00 59 1020.0
20260906002447 72 197 6.1 13.0 0.00 0.00 0.00 59 1020.0
20260906001424 72 196 6.1 8.7 0.00 0.00 0.00 59 1019.9
20260906000403 72 197 6.1 7.8 0.00 0.00 0.00 59 1019.9
20260905235402 73 199 6.1 9.6 0.00 0.00 0.00 60 1019.9
20260905234400 73 197 6.1 8.7 0.00 0.00 0.00 59 1020.0
20260905232354 73 197 6.1 7.8 0.00 0.00 0.00 59 1020.1
20260905231352 73 197 6.1 7.8 0.00 0.00 0.00 59 1020.0
20260905230350 74 199 6.1 9.6 0.00 0.00 0.00 58 1019.8
20260905225348 74 199 6.1 9.6 0.00 0.00 0.00 57 1019.7
20260905224346 74 198 6.1 9.6 0.00 0.00 0.00 56 1019.7
20260905223405 74 198 6.1 8.7 0.00 0.00 0.00 57 1019.6
20260905222343 74 199 6.1 7.8 0.00 0.00 0.00 57 1019.4
20260905221339 74 201 6.1 9.6 0.00 0.00 0.00 59 1019.2
20260905220343 74 201 6.1 9.6 0.00 0.00 0.00 59 1019.2
20260905215336 74 200 6.1 8.7 0.00 0.00 0.00 58 1019.0
20260905214333 74 200 6.1 9.6 0.00 0.00 0.00 58 1018.9
20260905213352 74 199 6.1 8.7 0.00 0.00 0.00 57 1018.8
20260905212330 74 200 6.1 7.8 0.00 0.00 0.00 56 1018.8
20260905211328 74 201 6.1 7.8 0.00 0.00 0.00 57 1018.8
20260905210325 74 201 6.1 9.6 0.00 0.00 0.00 55 1018.8
20260905205325 75 201 6.1 7.8 0.00 0.00 0.00 57 1018.8
20260905204342 75 202 6.1 8.7 0.00 0.00 0.00 56 1018.8
20260905203320 75 200 6.1 9.6 0.00 0.00 0.00 55 1018.7
20260905202318 75 199 6.1 7.8 0.00 0.00 0.00 54 1018.7
20260905200315 76 199 6.1 8.7 0.00 0.00 0.00 55 1018.7
20260905195314 76 201 6.1 9.6 0.00 0.00 0.00 54 1018.6
20260905190302 77 200 6.1 7.8 0.00 0.00 0.00 51 1018.6
20260905185300 78 202 5.2 7.8 0.00 0.00 0.00 50 1018.7
20260905184259 78 202 5.2 8.7 0.00 0.00 0.00 50 1018.7
20260905183316 78 199 5.2 7.8 0.00 0.00 0.00 50 1018.7
20260905182314 79 199 6.1 7.8 0.00 0.00 0.00 48 1018.6
20260905181333 80 198 6.1 8.7 0.00 0.00 0.00 47 1018.6
20260905180250 80 198 5.2 7.8 0.00 0.00 0.00 46 1018.6
20260905175248 81 200 6.1 7.8 0.00 0.00 0.00 45 1018.5
20260905174306 81 200 6.1 7.8 0.00 0.00 0.00 45 1018.6
20260905173244 82 198 5.2 7.8 0.00 0.00 0.00 44 1018.5
20260905172244 83 194 5.2 7.8 0.00 0.00 0.00 42 1018.4
20260905171240 83 196 5.2 7.8 0.00 0.00 0.00 41 1018.3
20260905170238 84 196 5.2 7.0 0.00 0.00 0.00 41 1018.3
20260905165236 85 194 6.1 8.7 0.00 0.00 0.00 40 1018.3
20260905164235 85 194 5.2 7.8 0.00 0.00 0.00 39 1018.3
20260905163231 86 192 5.2 7.8 0.00 0.00 0.00 39 1018.3
20260905162250 87 191 6.1 7.8 0.00 0.00 0.00 38 1018.3
20260905161229 87 192 6.1 8.7 0.00 0.00 0.00 37 1018.3
20260905160227 88 189 6.1 9.6 0.00 0.00 0.00 37 1018.3
20260905155223 88 191 6.1 7.8 0.00 0.00 0.00 36 1018.3
20260905154222 89 188 6.1 7.8 0.00 0.00 0.00 36 1018.3
20260905153220 89 189 6.1 7.8 0.00 0.00 0.00 35 1018.4
20260905152218 89 187 6.1 8.7 0.00 0.00 0.00 35 1018.6
20260905151215 90 187 6.1 7.8 0.00 0.00 0.00 35 1018.6
20260905150214 90 187 6.1 8.7 0.00 0.00 0.00 34 1018.7
20260905145213 90 186 6.1 7.8 0.00 0.00 0.00 34 1018.7
20260905144210 90 206 6.1 8.7 0.00 0.00 0.00 35 1018.7
20260905143208 90 197 6.1 7.8 0.00 0.00 0.00 34 1018.7
20260905142206 91 185 6.1 9.6 0.00 0.00 0.00 35 1018.7
20260905141205 91 191 6.1 9.6 0.00 0.00 0.00 34 1018.8
20260905140202 91 188 6.1 9.6 0.00 0.00 0.00 35 1018.8
20260905135159 91 188 6.1 7.8 0.00 0.00 0.00 35 1018.9
20260905134159 92 187 6.1 7.8 0.00 0.00 0.00 34 1018.9
20260905133155 92 183 6.1 8.7 0.00 0.00 0.00 35 1019.1
20260905132154 93 184 6.1 8.7 0.00 0.00 0.00 34 1019.2
20260905131152 94 187 6.1 8.7 0.00 0.00 0.00 33 1019.2
20260905130151 96 186 6.1 7.8 0.00 0.00 0.00 32 1019.4
20260905125149 98 186 6.1 8.7 0.00 0.00 0.00 32 1019.4
20260905124146 100 188 5.2 7.8 0.00 0.00 0.00 31 1019.6
20260905123144 100 187 5.2 8.7 0.00 0.00 0.00 30 1019.9
20260905122141 100 208 5.2 7.0 0.00 0.00 0.00 31 1020.0
20260905121139 100 198 5.2 7.0 0.00 0.00 0.00 31 1020.1
20260905120140 100 201 5.2 7.8 0.00 0.00 0.00 31 1020.3
20260905115135 99 207 5.2 7.8 0.00 0.00 0.00 31 1020.3
20260905114134 99 205 4.3 7.0 0.00 0.00 0.00 32 1020.3
20260905113132 98 196 5.2 8.7 0.00 0.00 0.00 33 1020.5
20260905112210 96 196 5.2 7.8 0.00 0.00 0.00 33 1020.5
20260905111128 95 195 5.2 7.8 0.00 0.00 0.00 34 1020.5
20260905110126 94 194 5.2 7.8 0.00 0.00 0.00 34 1020.5
20260905105204 94 196 5.2 8.7 0.00 0.00 0.00 35 1020.6
20260905104122 94 197 5.2 8.7 0.00 0.00 0.00 34 1020.8
20260905103120 94 197 5.2 7.8 0.00 0.00 0.00 35 1020.8
20260905102119 95 208 3.5 5.2 0.00 0.00 0.00 34 1020.8
20260905101136 96 209 3.5 7.8 0.00 0.00 0.00 34 1020.9
20260905100113 96 209 3.5 7.8 0.00 0.00 0.00 33 1020.9
20260905095113 97 209 3.5 7.8 0.00 0.00 0.00 33 1020.9
20260905094109 98 209 4.3 6.1 0.00 0.00 0.00 33 1020.9
20260905093108 98 209 4.3 6.1 0.00 0.00 0.00 33 1020.9
20260905092105 98 212 3.5 6.1 0.00 0.00 0.00 34 1021.0
20260905091104 98 212 4.3 6.1 0.00 0.00 0.00 34 1021.1
20260905085100 95 211 3.5 6.1 0.00 0.00 0.00 37 1021.2
20260905084058 94 212 4.3 6.1 0.00 0.00 0.00 39 1021.3
20260905083055 93 209 3.5 6.1 0.00 0.00 0.00 40 1021.4
20260905082055 92 211 4.3 7.0 0.00 0.00 0.00 41 1021.5
20260905081052 91 210 4.3 6.1 0.00 0.00 0.00 41 1021.6
20260905080049 91 202 4.3 7.8 0.00 0.00 0.00 42 1021.6
20260905075108 90 204 5.2 7.8 0.00 0.00 0.00 43 1021.6
20260905074046 89 195 5.2 9.6 0.00 0.00 0.00 43 1021.5
20260905073043 88 189 5.2 7.8 0.00 0.01 0.00 44 1021.5
20260905072102 87 188 5.2 7.8 0.00 0.01 0.00 45 1021.5
20260905071040 87 188 6.1 8.7 0.00 0.01 0.00 45 1021.6
20260905070050 86 189 6.1 8.7 0.00 0.01 0.00 47 1021.5
20260905065116 85 186 6.1 9.6 0.00 0.01 0.00 48 1021.5
20260905064034 84 189 6.1 8.7 0.00 0.01 0.00 50 1021.4
20260905063052 83 188 6.1 7.8 0.00 0.01 0.00 52 1021.3
20260905062030 82 188 5.2 7.8 0.00 0.01 0.00 53 1021.2
20260905061029 80 190 6.1 7.8 0.00 0.01 0.00 55 1021.1
20260905060036 79 187 6.1 8.7 0.00 0.01 0.00 57 1021.0
20260905055024 78 192 6.1 7.8 0.00 0.01 0.00 60 1021.1
20260905054021 76 196 6.1 7.8 0.00 0.01 0.00 62 1021.0
20260905053019 74 199 5.2 7.8 0.00 0.01 0.00 65 1021.1